Content
SEND FEEDBACK

Daily
Averages
Monthly
Summary
United States of America

ALBANY, NEW YORK


Home > North America > United States > New York
Elevation: 275 feet     Latitude: 42 45N     Longitude: 073 48W

WEATHER
 
SELECT A DAY
Number of Records: 210,904;   Date Range: 1/1/95 - 12/19/14
 
SHARE

PRINT THIS DATA

[ ← Previous Day ]
WEATHER ALMANAC - JULY 13, 2013
[ Next Day → ]
[ °C ]   °F
Weather ElementAverageHighLow
Temperature73.3 °F79 °F (5:51 pm)66.9 °F (5:51 am)
Dewpoint65.1 °F71.1 °F (9:51 pm)59 °F (5:16 am)
Humidity75.5 %87 % (11:51 pm)67 % (12:51 pm)
Barometer30.26 in30.29 in (10:27 pm)30.19 in (1:51 am)
Wind Speed2.4 mph5.8 mph (5:51 am)
Weather ElementAverage
Visibility10 mi
Wind DirectionESE (110.4 °)

Weather ElementTotal
Precipitation---
Cooling Degree Days8 (Base 65)
Growing Degree Days23 (Base 50)
Averaged from 26 records on July 13, 2013
WEATHER CONDITIONS BREAKOUT
WIND DIRECTION BREAKOUT
WEATHER BY HOUR - JULY 13, 2013
[ °C ]   °F
Local TimeTemperatureDewpointHumidityBarometerVisibilityWind DirectionWind SpeedGust SpeedPrecipitationEventsConditions
1:51 AM70.0 °F63.0 °F78 %30.19 in10.0 miNorth (360°)3.5 mphMostly Cloudy
2:51 AM69.1 °F61.0 °F75 %30.19 in10.0 miNNE (30°)3.5 mphMostly Cloudy
3:51 AM68.0 °F60.1 °F76 %30.21 in10.0 miENE (60°)3.5 mphOvercast
4:51 AM68.0 °F60.1 °F76 %30.21 in10.0 miCalm0.00 inRainLight Rain
5:16 AM68.0 °F59.0 °F73 %30.22 in10.0 miNW (320°)4.6 mph0.00 inRainLight Rain
5:51 AM66.9 °F61.0 °F81 %30.23 in10.0 miNNW (330°)5.8 mph0.00 inRainLight Rain
6:51 AM68.0 °F60.1 °F76 %30.23 in10.0 miCalm0.00 inOvercast
7:51 AM68.0 °F61.0 °F78 %30.25 in10.0 miWest (260°)4.6 mph0.00 inMostly Cloudy
8:51 AM70.0 °F61.0 °F73 %30.27 in10.0 miCalmOvercast
9:51 AM71.1 °F61.0 °F70 %30.27 in10.0 miCalmOvercast
10:51 AM73.0 °F62.1 °F68 %30.27 in10.0 miCalmOvercast
11:51 AM73.9 °F63.0 °F68 %30.28 in10.0 miCalmOvercast
12:51 PM75.9 °F64.0 °F67 %30.28 in10.0 miCalmMostly Cloudy
1:51 PM75.0 °F64.0 °F69 %30.28 in10.0 miCalmOvercast
2:51 PM75.9 °F66.0 °F71 %30.28 in10.0 miNorth (360°)3.5 mph0.00 inOvercast
3:51 PM75.9 °F66.9 °F74 %30.27 in10.0 miENE (60°)3.5 mphOvercast
4:51 PM77.0 °F69.1 °F76 %30.26 in10.0 miCalmMostly Cloudy
5:51 PM79.0 °F69.1 °F72 %30.25 in10.0 miSouth (190°)5.8 mphMostly Cloudy
6:51 PM79.0 °F69.1 °F72 %30.26 in10.0 miSouth (180°)4.6 mphMostly Cloudy
7:51 PM79.0 °F70.0 °F74 %30.26 in10.0 miCalmMostly Cloudy
8:51 PM77.0 °F70.0 °F79 %30.27 in10.0 miCalmMostly Cloudy
9:04 PM77.0 °F69.8 °F78 %30.27 in10.0 miCalmMostly Cloudy
9:51 PM75.9 °F71.1 °F85 %30.28 in10.0 miSSW (200°)4.6 mphMostly Cloudy
10:27 PM75.2 °F69.8 °F83 %30.29 in10.0 miSouth (180°)4.6 mphMostly Cloudy
10:51 PM75.0 °F70.0 °F84 %30.29 in10.0 miSSE (160°)4.6 mphMostly Cloudy
11:51 PM73.9 °F70.0 °F87 %30.29 in10.0 miSouth (180°)4.6 mphPartly Cloudy
Hourly data recorded from KALB, located miles away from Albany, New York







STORIES FROM OUR PARTNERS